2022-098K (53453 NORAD) Tracking and Keplerian Element Data

This shows tracking and keplerian element data for the satellite.

Feedback or suggestion? Click here.




ElementValue
Catalog53453
Name2022-098K
Epoch Orbit722
Epoch Day270.17872796
Epoch Year2022
RAAN5.7109
Inclination97.5334
Eccentricity0.0012165
Argument of Perigee108.1219
Mean Anonmoly340.1063
Mean Motion15.09936965
Decay Rate3.874E-05
L11 53453U 22098K 22270.17872796 .00003874 00000+0 24239-3 0 9995
L22 53453 97.5334 5.7109 0012165 108.1219 340.1063 15.09936965 7223

Live tracking and technical data element details for 2022-098K (NORAD 53453). 2022-098K can be tracked NOW for your location showing map with azimuth and elevation plus other details from your city location.

Track the satellite on the map from your city or location and see movement details for azimuth, elevation, latitude, longitude, range, height, and movement on the map or in text.







IsCatalogInMostPopularTable: catalog: 53453, numindb: 3
Update: records affected: 1



GetName: 53453 2022-098K

Hit Count: updated at: Fri, 30 Sep 2022 02:52:17 GMT